time_stamp(utc),avg(mph),gust(mph),direction(deg),12m_air_temp(f),sonic_u(cm/s),sonic_v(cm/s),sonic_w(cm/s),pressure,2m_air_temp(f),pyranometer(W/m^2)
"2019-05-06 00:01:24+00",28.1,30.1,,51.5,985,738,67,1005.11,51.3,0
"2019-05-06 00:06:24+00",31.9,35.9,,51.4,851,813,229,1005.15,51.2,0
"2019-05-06 00:11:24+00",27.8,31.8,,51.6,905,764,83,1005.32,51.3,0
"2019-05-06 00:16:24+00",31.5,34.5,,51.3,488,797,401,1005.29,51.1,0
"2019-05-06 00:21:24+00",30.9,34.9,,51.5,861,853,171,1005.42,51.2,0
"2019-05-06 00:26:24+00",31.2,36.2,,51.5,1020,820,123,1005.58,51.2,0
"2019-05-06 00:31:24+00",31.4,36.4,,51.4,657,779,359,1005.68,51.1,0
"2019-05-06 00:36:24+00",31.6,36.6,,51.6,747,769,303,1005.67,51.2,0
"2019-05-06 00:41:24+00",32.8,36.8,,51.5,177,899,553,1005.64,51.2,0
"2019-05-06 00:46:24+00",33.4,38.4,,51.4,310,916,421,1005.84,51.2,0
"2019-05-06 00:51:24+00",28.3,31.3,,51.5,877,791,74,1006.12,51.3,0
"2019-05-06 00:56:24+00",32.9,37.9,,50.9,573,-308,-528,1006.28,51.1,0
"2019-05-06 01:01:24+00",33.4,38.4,,50.4,1217,847,60,1006.43,51,0
"2019-05-06 01:06:24+00",33.3,37.3,,50.2,1532,842,-129,1006.52,50.9,0
"2019-05-06 01:11:24+00",33.2,36.2,,50.3,1459,886,-103,1006.71,50.9,0
"2019-05-06 01:16:24+00",30.3,33.3,,50.5,530,1138,-8,1006.95,51,0
"2019-05-06 01:21:24+00",31.5,34.5,,50.5,260,1070,278,1007.09,50.9,0
"2019-05-06 01:26:24+00",32.5,35.5,,50.3,-32,1097,381,1007.09,50.9,0
"2019-05-06 01:31:24+00",35.0,39.0,,50.5,-185,1854,-14,1006.95,50.9,0
"2019-05-06 01:36:24+00",30.5,38.5,,50.7,-103,1252,272,1007.15,51,0
"2019-05-06 01:41:24+00",33.7,37.7,,50.3,-6,1728,-46,1007.01,50.8,0
"2019-05-06 01:46:24+00",38.9,42.9,,49.9,-379,957,937,1006.71,50.5,0
"2019-05-06 01:51:24+00",35.1,38.1,,50.1,-265,965,771,1006.76,50.6,0
"2019-05-06 01:56:24+00",40.7,47.7,,50,446,788,776,1006.56,50.6,0
"2019-05-06 02:01:24+00",41.2,46.2,,49.9,-165,333,1444,1006.39,50.6,0
"2019-05-06 02:06:24+00",41.0,43.0,,49.9,-36,992,830,1006.48,50.6,0
"2019-05-06 02:11:24+00",42.9,48.9,,49.9,-536,1167,1039,1006.37,50.6,0
"2019-05-06 02:16:24+00",39.0,43.0,,50.7,-160,424,1351,1006.35,50.6,0
"2019-05-06 02:21:24+00",43.7,49.7,,50.7,1516,1228,-71,1006.08,50.6,0
"2019-05-06 02:26:24+00",40.0,49.0,,51,95,936,757,1005.99,50.7,0
"2019-05-06 02:31:24+00",39.9,44.9,,51.6,1124,985,183,1006.04,51,0
"2019-05-06 02:36:24+00",44.4,48.4,,51.8,1054,1225,154,1006.07,51.1,0
"2019-05-06 02:41:24+00",38.8,43.8,,51.3,1107,978,269,1006.14,51.1,0
"2019-05-06 02:46:24+00",37.7,41.7,,51.4,607,959,453,1006.15,51.1,0
"2019-05-06 02:51:24+00",34.9,40.9,,51.4,802,876,315,1006.3,51.2,0
"2019-05-06 03:06:24+00",34.0,40.0,,52,2331,855,-572,1006.34,51.7,0
"2019-05-06 03:11:24+00",38.1,45.1,,51.7,3303,909,-996,1006.28,51.4,0
"2019-05-06 03:16:24+00",41.0,45.0,,51.5,3234,1055,-1029,1006.31,51.2,0
"2019-05-06 03:21:24+00",40.7,43.7,,51.5,1739,1094,-125,1006.38,51.2,0
"2019-05-06 03:26:24+00",34.5,38.5,,51.6,1298,845,119,1006.41,51.3,0
"2019-05-06 03:31:24+00",32.9,38.9,,51.8,1134,890,71,1006.49,51.5,0
"2019-05-06 03:36:24+00",39.3,42.3,,51.7,1397,1049,64,1006.28,51.5,0
"2019-05-06 03:41:24+00",36.6,41.6,,51.8,1294,966,71,1006.5,51.5,0
"2019-05-06 03:46:24+00",37.1,42.1,,51.9,1257,1021,59,1006.57,51.6,0
"2019-05-06 03:51:24+00",38.8,41.8,,51.7,1329,1052,82,1006.62,51.5,0
"2019-05-06 03:56:24+00",36.1,41.1,,51.7,1282,952,82,1006.73,51.5,0
"2019-05-06 04:01:24+00",34.9,38.9,,51.7,1301,848,104,1006.61,51.5,0
"2019-05-06 04:06:24+00",35.6,38.6,,51.6,1259,945,86,1006.78,51.4,0
"2019-05-06 04:11:24+00",32.2,37.2,,51.7,1078,892,65,1006.7,51.4,0
"2019-05-06 04:16:24+00",32.6,37.6,,51.7,1182,830,78,1006.76,51.4,0
"2019-05-06 04:21:24+00",33.5,37.5,,51.6,1150,912,71,1006.75,51.4,0
"2019-05-06 04:26:24+00",31.8,34.8,,51.6,1160,805,82,1006.66,51.4,0
"2019-05-06 04:31:24+00",37.6,40.6,,51.5,1377,949,81,1006.51,51.3,0
"2019-05-06 04:36:24+00",33.8,36.8,,51.4,1304,755,67,1006.53,51.2,0
"2019-05-06 04:41:24+00",32.1,36.1,,51.4,1211,728,85,1006.44,51.1,0
"2019-05-06 04:46:24+00",30.0,35.0,,51.4,1140,698,90,1006.47,51.1,0
"2019-05-06 04:51:24+00",28.6,32.6,,51.3,1084,668,54,1006.51,51,0
"2019-05-06 04:56:24+00",28.9,32.9,,51.3,1125,643,78,1006.6,51,0
"2019-05-06 05:01:24+00",30.9,32.9,,51.4,1170,735,54,1006.67,51.1,0
"2019-05-06 05:06:24+00",27.1,34.1,,51.5,1034,627,62,1006.74,51.2,0
"2019-05-06 05:11:24+00",28.8,31.8,,51.5,978,793,47,1006.89,51.2,0
"2019-05-06 05:16:24+00",26.3,31.3,,51.6,837,744,43,1007.2,51.3,0
"2019-05-06 05:21:24+00",28.8,30.8,,51.6,912,829,19,1007.42,51.3,0
"2019-05-06 05:26:24+00",22.7,25.7,,51.7,671,693,47,1007.54,51.4,0
"2019-05-06 05:31:24+00",28.3,33.3,,51.6,930,794,28,1007.42,51.3,0
"2019-05-06 05:36:24+00",25.7,28.7,,51.8,829,729,33,1007.45,51.5,0
"2019-05-06 05:41:24+00",26.3,29.3,,51.8,715,831,0,1007.51,51.5,0
"2019-05-06 05:46:24+00",27.5,30.5,,51.6,768,836,8,1007.57,51.4,0
"2019-05-06 05:51:24+00",26.3,33.3,,51.7,799,775,30,1007.78,51.4,0
"2019-05-06 05:56:24+00",23.2,28.2,,51.6,542,848,13,1007.92,51.4,0
"2019-05-06 06:01:24+00",22.3,30.3,,51.5,576,743,26,1007.89,51.3,0
"2019-05-06 06:06:24+00",27.3,33.3,,51.4,667,969,23,1007.84,51.1,0
"2019-05-06 06:11:24+00",23.0,27.0,,51.5,571,801,29,1007.91,51.1,0
"2019-05-06 06:16:24+00",25.9,30.9,,51.6,570,974,5,1007.91,51.2,0
"2019-05-06 06:21:24+00",24.3,29.3,,51.7,574,875,24,1007.91,51.3,0
"2019-05-06 06:26:24+00",24.2,30.2,,51.7,584,848,35,1007.85,51.3,0
"2019-05-06 06:31:24+00",26.7,31.7,,51.7,648,953,5,1007.93,51.3,0
"2019-05-06 06:36:24+00",25.9,28.9,,51.7,590,961,4,1008.15,51.3,0
"2019-05-06 06:41:24+00",23.2,29.2,,51.8,440,896,4,1008.23,51.3,0
"2019-05-06 06:46:24+00",26.0,29.0,,51.8,439,1005,-7,1008.29,51.4,0
"2019-05-06 06:51:24+00",20.0,23.0,,51.9,286,781,-6,1008.43,51.4,0
"2019-05-06 06:56:24+00",18.6,23.6,,51.9,256,730,13,1008.51,51.5,0
"2019-05-06 07:01:24+00",21.5,25.5,,51.9,280,870,1,1008.59,51.4,0
"2019-05-06 07:06:24+00",17.5,19.5,,51.9,177,739,14,1008.72,51.4,0
"2019-05-06 07:11:24+00",18.1,21.1,,51.6,244,725,4,1008.75,51.3,0
"2019-05-06 07:16:24+00",25.4,28.4,,51.3,16838,0,258,1008.76,51,-0.1
"2019-05-06 07:21:24+00",16.1,20.1,,51.1,1768,-2164,1571,1008.88,50.8,0
"2019-05-06 07:26:24+00",16.2,21.2,,51.1,1213,-637,738,1009.05,50.7,0
"2019-05-06 07:31:24+00",17.6,23.6,,51.1,868,-245,476,1009.16,50.6,0
"2019-05-06 07:36:24+00",18.2,22.2,,51.1,1220,-679,766,1009.22,50.5,0
"2019-05-06 07:41:24+00",16.7,20.7,,51.3,1279,-1125,1028,1009.32,50.6,0
"2019-05-06 07:46:24+00",16.1,19.1,,51.3,1760,-1984,1459,1009.35,50.6,0
"2019-05-06 07:51:24+00",13.2,17.2,,51.2,556,-177,418,1009.2,50.7,0
"2019-05-06 07:56:24+00",14.4,17.4,,51.3,1646,-1998,1439,1009.19,50.6,0
"2019-05-06 08:01:24+00",12.2,14.2,,51.3,860,-837,767,1009.28,50.8,0
"2019-05-06 08:06:24+00",14.6,18.6,,51.3,1485,-1757,1334,1009.37,50.8,0
"2019-05-06 08:11:24+00",15.2,17.2,,51.2,1460,-1647,1278,1009.41,50.8,0
"2019-05-06 08:16:24+00",15.7,19.7,,51.3,1562,-1776,1352,1009.52,50.9,0
"2019-05-06 08:21:24+00",16.5,20.5,,51.2,2063,-2638,1854,1009.6,50.9,0
"2019-05-06 08:26:24+00",19.0,22.0,,51.2,224,1124,-220,1009.56,50.8,0
"2019-05-06 08:31:24+00",21.9,26.9,,50.9,474,815,16,1009.47,50.4,0
"2019-05-06 08:36:24+00",16.4,20.4,,50.9,-998,2956,-1212,1009.46,50.4,0
"2019-05-06 08:41:24+00",16.5,20.5,,50.9,-1871,4536,-2065,1009.52,50.3,0
"2019-05-06 08:46:24+00",14.4,18.4,,51.1,20,1002,-311,1009.53,50.3,0
"2019-05-06 08:51:24+00",15.6,18.6,,51.1,1031,584,-394,1009.57,50.3,0
"2019-05-06 08:56:24+00",14.4,17.4,,51.2,188,575,-20,1009.64,50.4,0
"2019-05-06 09:01:24+00",15.7,19.7,,51.3,175,642,-24,1009.77,50.5,0
"2019-05-06 09:06:24+00",13.1,15.1,,51.3,109,551,7,1009.64,50.5,0
"2019-05-06 09:11:24+00",14.8,16.8,,51.2,119,630,3,1009.75,50.4,0
"2019-05-06 09:16:24+00",13.0,16.0,,51.2,201,508,10,1009.76,50.4,0
"2019-05-06 09:21:24+00",15.1,18.1,,51.3,303,578,4,1009.82,50.4,0
"2019-05-06 09:26:24+00",12.9,16.9,,51.2,254,503,4,1009.73,50.4,0
"2019-05-06 09:31:24+00",13.1,16.1,,51.2,-687,2133,-892,1009.96,50.5,0
"2019-05-06 09:56:24+00",17.4,20.4,,51.4,1702,-1905,1515,1010.87,50.5,0
"2019-05-06 10:01:24+00",13.5,14.5,,51.2,-663,1857,-705,1010.98,50.4,0
"2019-05-06 10:06:24+00",11.9,14.9,,51,55,509,14,1011.15,50.2,0
"2019-05-06 10:11:24+00",12.4,14.4,,50.8,17,539,11,1011.2,50,0
"2019-05-06 10:16:24+00",11.1,13.1,,50.7,-43,484,21,1011.25,49.9,0
"2019-05-06 10:21:24+00",13.7,15.7,,50.6,-115,592,20,1011.35,49.9,0
"2019-05-06 10:26:24+00",12.5,14.5,,50.5,-154,523,37,1011.52,50,1
"2019-05-06 10:31:24+00",12.5,14.5,,50.3,-147,533,29,1011.54,50,0
"2019-05-06 10:36:24+00",12.8,14.8,,50.2,-151,541,26,1011.62,50,0
"2019-05-06 10:41:24+00",11.4,13.4,,50.1,-122,490,28,1011.77,49.8,0.1
"2019-05-06 10:46:24+00",10.7,13.7,,50.2,-104,448,38,1011.85,49.8,4.7
"2019-05-06 10:51:24+00",12.3,14.3,,50.3,-107,528,22,1011.9,49.9,14
"2019-05-06 10:56:24+00",12.4,14.4,,50.4,-110,531,18,1011.92,50.1,21.6
"2019-05-06 11:01:24+00",13.7,15.7,,50.5,-106,595,17,1012.03,50.3,20
"2019-05-06 11:06:24+00",13.8,14.8,,50.5,-114,605,19,1011.99,50.5,36.5
"2019-05-06 11:11:24+00",13.4,15.4,,50.6,-38,582,20,1012.07,50.7,37.7
"2019-05-06 11:16:24+00",12.6,16.6,,50.8,-15,557,31,1012.1,50.9,50.9
"2019-05-06 11:21:24+00",15.2,17.2,,50.9,-48,666,13,1012.21,51.2,66.8
"2019-05-06 11:26:24+00",16.7,17.7,,50.9,-51,729,17,1012.2,51.3,39
"2019-05-06 11:31:24+00",14.5,16.5,,51,-41,633,2,1012.28,51.3,47
"2019-05-06 11:36:24+00",12.1,14.1,,51.2,-48,537,19,1012.29,51.5,56.2
"2019-05-06 11:41:24+00",15.4,18.4,,51.8,-10,679,15,1012.32,52.2,105.5
"2019-05-06 11:46:24+00",13.2,15.2,,52.2,-56,583,26,1012.43,53.2,129.3
"2019-05-06 11:51:24+00",14.0,16.0,,52.6,6,602,15,1012.5,54,167.7
"2019-05-06 11:56:24+00",13.1,15.1,,52.8,21,572,35,1012.64,54.5,177.2
"2019-05-06 12:01:24+00",13.2,15.2,,53.1,-28,576,6,1012.67,55,185.5
"2019-05-06 12:06:24+00",14.9,16.9,,53.3,63,640,-1,1012.72,55.3,195.9
"2019-05-06 12:11:24+00",13.5,15.5,,53.5,-36,598,22,1012.84,55.7,202.4
"2019-05-06 12:16:24+00",13.2,15.2,,53.9,26,574,27,1013.02,56.2,211.9
"2019-05-06 12:21:24+00",13.1,15.1,,54.3,45,568,20,1013.19,56.3,217.8
"2019-05-06 12:26:24+00",13.7,16.7,,54.5,42,590,29,1013.2,56.8,226.4
"2019-05-06 12:31:24+00",14.9,15.9,,54.6,61,640,5,1013,56.8,234.4
"2019-05-06 12:36:24+00",15.9,18.9,,54.9,74,685,15,1013.12,56.9,243
"2019-05-06 12:41:24+00",16.8,19.8,,55.1,130,718,0,1013.27,57.2,249.4
"2019-05-06 12:46:24+00",14.3,16.3,,55.2,162,588,-6,1013.27,57.3,256.2
"2019-05-06 12:51:24+00",15.3,16.3,,55.3,107,652,3,1013.38,57.5,267.6
"2019-05-06 12:56:24+00",14.6,17.6,,55.8,38,622,-1,1013.53,58,260.7
"2019-05-06 13:01:24+00",13.3,16.3,,56.1,198,517,4,1013.43,58.7,276.1
"2019-05-06 13:06:24+00",15.4,17.4,,56,320,585,7,1013.29,58.7,285.5
"2019-05-06 13:11:24+00",13.8,15.8,,56.1,270,521,-4,1013.3,58.8,294.2
"2019-05-06 13:16:24+00",14.1,17.1,,56.3,58,613,12,1013.39,59.1,300.6
"2019-05-06 13:21:24+00",11.3,15.3,,56.3,172,442,17,1013.44,59.1,300.3
"2019-05-06 13:26:24+00",13.5,14.5,,56.4,177,538,-5,1013.47,59.4,320.3
"2019-05-06 13:31:24+00",11.2,13.2,,56.7,1,490,36,1013.67,60,328.4
"2019-05-06 13:36:24+00",13.0,15.0,,56.6,54,560,-5,1013.79,60.2,340.1
"2019-05-06 13:41:24+00",11.7,13.7,,56.9,87,486,3,1013.74,60.4,350.8
"2019-05-06 13:46:24+00",10.1,12.1,,57.4,90,425,5,1013.72,60.6,361.9
"2019-05-06 13:51:24+00",11.8,12.8,,57.7,225,444,-7,1013.94,60.9,371.8
"2019-05-06 13:56:24+00",10.7,12.7,,58,76,440,2,1014.07,61.2,381.8
"2019-05-06 14:01:24+00",11.4,13.4,,58.2,56,486,6,1014.14,61.7,391.2
"2019-05-06 14:06:24+00",13.1,15.1,,58.3,143,536,-11,1014.29,62,401.6
"2019-05-06 14:11:24+00",8.3,10.3,,58.7,84,334,31,1014.37,62.2,412.2
"2019-05-06 14:16:24+00",9.8,9.8,,58.7,245,314,-6,1014.33,62.4,418.6
"2019-05-06 14:21:24+00",9.4,10.4,,59,207,342,9,1014.25,62.6,429.6
"2019-05-06 14:26:24+00",10.4,12.4,,59.6,221,391,7,1014.25,63.1,440.6
"2019-05-06 14:31:24+00",7.8,9.8,,60,87,308,22,1014.33,63.5,446.9
"2019-05-06 14:36:24+00",9.2,11.2,,60.1,72,382,24,1014.46,63.8,460.4
"2019-05-06 14:41:24+00",8.0,9.0,,59.7,22,340,12,1014.48,64.2,465.6
"2019-05-06 14:46:24+00",7.5,7.5,,59.7,302,136,50,1014.64,64.7,471.2
"2019-05-06 14:51:24+00",8.8,9.8,,58.5,350,162,11,1014.66,64.4,476.2
"2019-05-06 14:56:24+00",9.6,10.6,,58.4,394,162,18,1014.77,64.3,482.2
"2019-05-06 15:01:24+00",9.7,10.7,,58.3,397,168,13,1014.94,64.3,489.4
"2019-05-06 15:06:24+00",9.9,10.9,,58.3,389,193,13,1014.94,64.3,496.9
"2019-05-06 15:11:24+00",11.8,13.8,,58.6,446,274,22,1014.97,63.9,504.1
"2019-05-06 15:16:24+00",11.3,13.3,,58.7,434,247,43,1015.14,63.6,513.7
"2019-05-06 15:21:24+00",10.2,11.2,,58.8,406,202,44,1015.16,63.8,519.1
"2019-05-06 15:26:24+00",9.7,10.7,,58.9,413,144,24,1015.25,64.2,524.6
"2019-05-06 15:31:24+00",10.0,12.0,,59.2,432,153,53,1015.25,64.6,526.8
"2019-05-06 15:36:24+00",10.9,11.9,,58.8,479,64,23,1015.22,64.7,532.7
"2019-05-06 15:41:24+00",11.5,12.5,,58.8,499,114,27,1015.28,64.8,535.9
"2019-05-06 15:46:24+00",11.0,12.0,,58.9,488,61,16,1015.27,65,539.7
"2019-05-06 15:51:24+00",12.7,13.7,,58.5,559,99,43,1015.18,64.5,545.8
"2019-05-06 15:56:24+00",14.5,15.5,,58.2,633,141,18,1015.15,63.9,551
"2019-05-06 16:01:24+00",12.6,13.6,,58.2,561,75,39,1015.14,63.5,557.6
"2019-05-06 16:06:24+00",14.5,16.5,,58.3,633,162,37,1015.21,63.5,561
"2019-05-06 16:11:24+00",14.0,16.0,,58.1,604,166,43,1015.28,63.2,565.5
"2019-05-06 16:16:24+00",15.1,18.1,,58,654,170,31,1015.23,63.1,570.1
"2019-05-06 16:21:24+00",15.6,17.6,,58.1,689,153,60,1015.28,63.2,574.4
"2019-05-06 16:26:24+00",14.2,17.2,,58.3,618,154,59,1015.28,63.2,577.2
"2019-05-06 16:31:24+00",15.4,17.4,,57.9,676,150,35,1015.24,63.1,579.7
"2019-05-06 16:36:24+00",16.1,18.1,,58.1,699,208,33,1015.17,63,582.9
"2019-05-06 16:41:24+00",15.6,17.6,,58,673,206,50,1015.26,62.9,542.4
"2019-05-06 16:46:24+00",16.0,18.0,,57.7,698,171,39,1015.26,63,587
"2019-05-06 16:51:24+00",15.8,17.8,,57.5,689,198,14,1015.27,62.5,585.8
"2019-05-06 16:56:24+00",14.9,15.9,,57.7,660,185,53,1015.22,62.6,586.4
"2019-05-06 17:01:24+00",17.0,19.0,,57.4,748,180,22,1015.07,62.2,586.2
"2019-05-06 17:06:24+00",17.3,19.3,,57.7,754,212,44,1015.19,62.4,583.5
"2019-05-06 17:11:24+00",17.1,18.1,,57.3,751,179,50,1015.15,62.2,582.8
"2019-05-06 17:16:24+00",17.4,19.4,,57.3,767,241,37,1015.13,62.3,581.8
"2019-05-06 17:21:24+00",18.4,19.4,,57.1,803,179,35,1015.25,62.3,579.3
"2019-05-06 17:26:24+00",16.5,18.5,,57.1,753,59,34,1015.26,62.2,575.1
"2019-05-06 17:31:24+00",15.8,18.8,,57.2,704,82,39,1015.25,62.3,572.3
"2019-05-06 17:36:24+00",15.0,17.0,,57.1,656,118,85,1015.13,62.1,568.5
"2019-05-06 17:41:24+00",16.7,18.7,,57.1,742,86,33,1015.09,62.1,565.9
"2019-05-06 17:46:24+00",15.4,17.4,,57.1,685,-84,17,1014.94,61.3,559.2
"2019-05-06 17:51:24+00",16.1,18.1,,56.8,719,30,29,1015.14,61,558.3
"2019-05-06 17:56:24+00",16.9,18.9,,56.3,756,51,11,1015.18,61,552.6
"2019-05-06 18:01:24+00",15.4,16.4,,56.4,677,115,28,1015.26,61.2,546.9
"2019-05-06 18:06:24+00",16.9,18.9,,56.3,758,39,22,1015.21,61.1,543.9
"2019-05-06 18:11:24+00",14.9,16.9,,56.6,661,-12,62,1015.17,61.1,538.9
"2019-05-06 18:16:24+00",14.2,17.2,,56.5,640,17,12,1015.35,61,532.8
"2019-05-06 18:21:24+00",14.4,16.4,,56.2,636,-73,10,1015.4,60.6,526.5
"2019-05-06 18:26:24+00",14.8,15.8,,56.1,633,-173,-15,1015.44,59.9,523.6
"2019-05-06 18:31:24+00",14.9,16.9,,56,657,-104,19,1015.57,59.6,516.2
"2019-05-06 18:36:24+00",15.2,16.2,,56,657,-163,-18,1015.55,59.2,509.4
"2019-05-06 18:41:24+00",14.3,17.3,,56,613,-162,7,1015.63,59.3,502.8
"2019-05-06 18:46:24+00",13.9,16.9,,55.9,595,-179,4,1015.61,59.4,494.9
"2019-05-06 18:51:24+00",14.9,15.9,,55.7,662,-101,12,1015.42,59,488.8
"2019-05-06 18:56:24+00",15.5,17.5,,55.5,667,-193,1,1015.46,58.6,482
"2019-05-06 19:01:24+00",16.3,18.3,,55.6,729,-104,4,1015.42,59,472.8
"2019-05-06 19:06:24+00",16.5,18.5,,55.6,715,-206,28,1015.33,59,465.4
"2019-05-06 19:11:24+00",18.4,20.4,,55.1,817,-128,-5,1015.29,58.5,456.8
"2019-05-06 19:16:24+00",18.2,21.2,,54.8,784,-224,-5,1015.25,58.1,448.8
"2019-05-06 19:21:24+00",15.3,18.3,,55.4,630,-272,40,1015.36,58.6,438.8
"2019-05-06 19:26:24+00",17.3,19.3,,54.9,706,-307,-6,1015.37,58.3,430.1
"2019-05-06 19:31:24+00",15.3,17.3,,55.1,662,-141,58,1015.34,58.3,421.1
"2019-05-06 19:36:24+00",16.7,18.7,,54.8,669,-302,-16,1015.43,58.2,413.2
"2019-05-06 19:41:24+00",14.8,16.8,,54.7,570,-331,15,1015.42,58.1,402.6
"2019-05-06 19:46:24+00",13.4,16.4,,54.8,550,-241,3,1015.6,58.3,393.5
"2019-05-06 19:51:24+00",13.2,15.2,,54.9,465,-349,-8,1015.62,58.5,382.6
"2019-05-06 19:56:24+00",12.2,16.2,,55,456,-270,23,1015.66,58.5,372.5
"2019-05-06 20:01:24+00",14.2,16.2,,54.5,521,-340,-19,1015.82,58.4,365
"2019-05-06 20:06:24+00",11.1,13.1,,54.8,330,-354,-27,1016.07,58.3,353.8
"2019-05-06 20:11:24+00",10.0,13.0,,54.9,274,-326,-15,1016.25,57.8,345.5
"2019-05-06 20:16:24+00",9.4,11.4,,54.8,279,-298,-14,1016.34,57.6,334.8
"2019-05-06 20:21:24+00",10.4,12.4,,55.1,173,-411,-4,1016.41,57.6,324.4
"2019-05-06 20:26:24+00",10.2,12.2,,54.9,91,-415,-6,1016.61,57.4,317.2
"2019-05-06 20:31:24+00",9.8,11.8,,55.2,16,-415,-36,1016.75,57,300.9
"2019-05-06 20:36:24+00",8.9,10.9,,55.3,81,-366,-7,1016.86,57,292.4
"2019-05-06 20:41:24+00",8.3,10.3,,55.4,97,-334,4,1016.84,57,257.5
"2019-05-06 20:46:24+00",8.7,10.7,,55.4,105,-353,-32,1016.88,56.9,275.8
"2019-05-06 20:51:24+00",7.7,9.7,,55.8,14,-321,-21,1016.87,57.1,266.5
"2019-05-06 20:56:24+00",9.1,11.1,,55.4,135,-364,-34,1016.8,57.1,258.7
"2019-05-06 21:01:24+00",8.3,11.3,,55.8,-14,-345,-5,1016.96,57.2,250.8
"2019-05-06 21:06:24+00",8.7,11.7,,55.7,27,-367,-1,1016.99,57,244.2
"2019-05-06 21:11:24+00",7.4,10.4,,55.7,29,-320,13,1016.98,56.9,235.5
"2019-05-06 21:16:24+00",8.7,11.7,,55.7,31,-367,-13,1017.04,56.9,226.5
"2019-05-06 21:21:24+00",8.6,10.6,,55.7,93,-349,-1,1017,57.1,221.9
"2019-05-06 21:26:24+00",10.1,14.1,,55.6,153,-393,7,1017.02,57.2,217
"2019-05-06 21:31:24+00",10.9,12.9,,55.2,93,-460,-18,1017.02,56.8,204.5
"2019-05-06 21:36:24+00",8.0,10.0,,55.3,5,-329,-5,1017.13,56.6,193.3
"2019-05-06 21:41:24+00",5.6,7.6,,55.9,-18,-219,11,1017.16,56.9,184.1
"2019-05-06 21:46:24+00",8.0,11.0,,55.5,-25,-336,4,1017.12,56.6,50.4
"2019-05-06 21:51:24+00",7.9,9.9,,55.1,11,-328,-3,1017.13,56,29.1
"2019-05-06 21:56:24+00",8.6,10.6,,55,23,-359,-22,1017.16,55.6,47.6
"2019-05-06 22:01:24+00",7.7,10.7,,54.9,55,-325,-11,1017.28,55.5,40.4
"2019-05-06 22:06:24+00",6.5,8.5,,54.9,22,-270,13,1017.38,55.6,36.2
"2019-05-06 22:11:24+00",7.3,9.3,,55,82,-303,-10,1017.37,55.6,83.4
"2019-05-06 22:16:24+00",6.8,7.8,,55.3,90,-272,6,1017.18,56.2,157.8
"2019-05-06 22:21:24+00",7.7,8.7,,55.4,140,-288,34,1017.1,56.8,147.8
"2019-05-06 22:26:24+00",8.1,10.1,,55.4,57,-335,-15,1017.11,56.6,115.2
"2019-05-06 22:31:24+00",9.8,10.8,,55.2,191,-371,-12,1016.97,56.4,94.1
"2019-05-06 22:36:24+00",7.4,8.4,,55.1,87,-294,2,1017.08,56.2,79.2
"2019-05-06 22:41:24+00",8.9,9.9,,55,199,-324,-9,1017.03,56,68.1
"2019-05-06 22:46:24+00",9.8,10.8,,54.8,78,-406,-27,1017.15,55.7,0.5
"2019-05-06 22:51:24+00",8.3,11.3,,54.7,105,-332,10,1017.21,55.3,23.3
"2019-05-06 22:56:24+00",7.8,9.8,,54.7,56,-324,-2,1017.42,55.1,33.4
"2019-05-06 23:01:24+00",7.1,8.1,,54.4,9,-302,-9,1017.44,54.8,0
"2019-05-06 23:06:24+00",7.7,9.7,,54.3,41,-323,-8,1017.44,54.6,0
"2019-05-06 23:11:24+00",8.5,9.5,,54.2,112,-338,-2,1017.44,54.4,0
"2019-05-06 23:16:24+00",6.7,8.7,,54.1,53,-283,-1,1017.44,54.3,5
"2019-05-06 23:21:24+00",8.2,9.2,,54.2,195,-287,6,1017.41,54.5,1.6
"2019-05-06 23:26:24+00",8.1,9.1,,54.2,208,-274,-6,1017.41,54.5,0
"2019-05-06 23:31:24+00",7.9,8.9,,54.2,151,-294,-50,1017.61,54.5,0
"2019-05-06 23:36:24+00",7.7,8.7,,54.1,86,-316,-15,1017.73,54.3,0
"2019-05-06 23:41:24+00",7.9,8.9,,54,107,-320,-6,1017.84,54.1,0
"2019-05-06 23:46:24+00",5.9,7.9,,54,21,-243,-5,1018.09,54,0
"2019-05-06 23:51:24+00",6.0,7.0,,53.9,53,-244,5,1018.03,53.8,0
"2019-05-06 23:56:24+00",8.9,9.9,,53.8,102,-361,-10,1017.94,53.8,0
